Regional Weather Roundup
Issued by NWS

Home | Current Version | Previous Version | Text Only | Print | Product List | Glossary On
Versions: 1 2 3 4 5 6 7 8 9 10 11 12 13 14 15 16 17 18 19 20 21 22 23 24 25 26 27 28 29 30 31 32 33 34 35 36 37 38 39 40 41 42 43 44 45 46 47 48 49 50
000
ASUS43 KDTX 302210
RWRMI
MICHIGAN HOURLY REGIONAL WEATHER ROUNDUP
NATIONAL WEATHER SERVICE DETROIT/PONTIAC MI
600 PM EDT FRI SEP 30 2016

NOTE: "FAIR" INDICATES FEW OR NO CLOUDS BELOW 12,000 FEET WITH NO
SIGNIFICANT WEATHER AND/OR OBSTRUCTION TO VISIBILITY.

MIZ047>049-052>055-059>063-066>070-074>076-081>083-302300-
SOUTHEAST LOWER MICHIGAN

CITY           SKY/WX    TMP DP  RH WIND       PRES   REMARKS
ADRIAN         LGT RAIN  61  60  97 NE9       30.09R
ALMA           RAIN      60  60  99 E16G22    30.17S
ANN ARBOR      LGT RAIN  60  59  96 NE7       30.10R FOG
BAD AXE        RAIN      62  58  87 NE10G20   30.17S
CARO           LGT RAIN  60  60  98 CALM      30.16S
DETROIT CITY   CLOUDY    61  61 100 NE9       30.10S
DETROIT        LGT RAIN  61  60  97 NE8       30.11R
FLINT          RAIN      59  58  96 NE10      30.13F FOG
GROSSE ILE     LGT RAIN  62  59  92 E8        30.09R
HILLSDALE      RAIN      59  57  94 NE9       30.09R
HOWELL         LGT RAIN  59  58  97 NE7       30.10F

CITY           SKY/WX    TMP DP  RH WIND       PRES   REMARKS
JACKSON        LGT RAIN  60  59  96 E9        30.10R
LAMBERTVILLE   DRIZZLE   63  60  92 SE5       30.08S
LANSING        LGT RAIN  59  56  89 NE13      30.13F FOG
LAPEER         DRIZZLE   60  59  97 NE6       30.15S
MASON          CLOUDY    58  57  94 NE7       30.11F
MONROE         RAIN      61  61  99 NE6       30.08R
MT. CLEMENS    DRIZZLE   60  60 100 NE6       30.11R FOG
PONTIAC        LGT RAIN  59  57  93 NE12      30.11S
PORT HURON     HVY RAIN  61  61 100 E13       30.15R
TRI CITIES     LGT RAIN  61  60  97 NE10      30.18S FOG
MIDLAND        LGT RAIN  60  59  97 NE9       30.17S
TROY           CLOUDY    61  58  92 E10       30.13S
SAGINAW HB     CLOUDY    59  59 100 NE5       30.16F FOG
$$
MIZ043>046-050>051-056>058-064>065-071>073-077>080-302300-
SOUTHWEST LOWER MICHIGAN

CITY           SKY/WX    TMP DP  RH WIND       PRES   REMARKS
BATTLE CREEK   CLOUDY    61  58  90 NE13      30.10R
BENTON HARBOR  LGT RAIN  62  57  83 NE7       30.07F
BIG RAPIDS     LGT RAIN  60  58  95 NE5       30.16F
COLDWATER      CLOUDY    60  59  96 E9        30.09R
FREMONT        DRIZZLE   60  58  96 NE10G16   30.14F
HOLLAND        CLOUDY    62  58  86 NE13G18   30.12R
GRAND RAPIDS   LGT RAIN  60  56  86 E14       30.13R
IONIA          LGT RAIN  58  56  94 NE12      30.13S
KALAMAZOO      LGT RAIN  61  56  83 VRB7      30.10R
LUDINGTON      LGT RAIN  60  59  98 NE7       30.16F
MARSHALL       DRIZZLE   60  59  98 NE5       30.10R
MOUNT PLEASANT HVY RAIN  60  58  96 NE8       30.17S
MUSKEGON       LGT RAIN  62  58  86 NE12      30.13S
SOUTH HAVEN    LGT RAIN  63  59  88 NE12      30.08S
$$
MIZ016>042-302300-
NORTHERN LOWER MICHIGAN

CITY           SKY/WX    TMP DP  RH WIND       PRES   REMARKS
ALPENA         SUNNY     64  51  62 E15G24    30.27S
BEAVER ISLAND  CLOUDY    63  53  70 E10G22    30.26F
BELLAIRE       MOSUNNY   68  55  62 NE12      30.21S
CADILLAC       HVY RAIN  59  58  95 NE8       30.19S
CHARLEVOIX     CLOUDY    63  54  72 NE15G21   30.27R
FRANKFORT      CLOUDY    64  58  83 CALM      30.19S
GAYLORD        CLOUDY    64  52  64 E10G21    30.25R
GRAYLING       PTSUNNY   64  56  77 NE15G22   30.23S
HARBOR SPRINGS CLOUDY    62  54  74 E14G22    30.25S
HOUGHTON LAKE  CLOUDY    61  57  87 NE13      30.21S
MANISTEE       LGT RAIN  61  59  93 NE3       30.18F
OSCODA         CLOUDY    64  55  74 NE18      30.22S
PELLSTON       CLOUDY    63  52  67 E9        30.27F
ROGERS CITY    CLOUDY    62  54  75 E9        30.30S
TRAVERSE CITY  PTSUNNY   67  57  70 E8        30.19S
$$
MIZ007>008-015-302300-
EASTERN UPPER MICHIGAN

CITY           SKY/WX    TMP DP  RH WIND       PRES   REMARKS
KINROSS        CLOUDY    65  52  62 E9        30.31S
MACKINAC ISLAN CLOUDY    62  54  75 E9G18     30.28S
NEWBERRY       CLOUDY    65  54  65 NE5       30.29S
S. S. MARIE    SUNNY     71  48  43 SE6       30.30R
MUNISING         N/A     64  59  83 N9        30.29S
$$
MIZ004>006-011>014-085-302300-
CENTRAL UPPER MICHIGAN

CITY           SKY/WX    TMP DP  RH WIND       PRES   REMARKS
MANISTIQUE     CLOUDY    66  51  58 E9        30.28R
ESCANABA       PTSUNNY   69  52  54 E12       30.26S
MENOMINEE      CLOUDY    64  55  72 E14       30.25S
SAWYER-GWINN   CLOUDY    57  52  82 NE13      30.31F
$$
MIZ001>003-009>011-084-302300-
WESTERN UPPER MICHIGAN

CITY           SKY/WX    TMP DP  RH WIND       PRES   REMARKS
IRON MOUNTAIN  CLOUDY    65  47  52 N9        30.27S
HOUGHTON       SUNNY     64  49  57 E9        30.33F
COPPER HARBOR    N/A     62  56  80 E5        30.34F
IRONWOOD       PTSUNNY   61  56  83 N9        30.32S
$$

ABBREVIATIONS USED IN REMARKS
   TC - TEMPERATURE IN CELSIUS
  WCI - WIND CHILL INDEX
   HX - HEAT INDEX
  VSB - VISIBILITY





USA.gov is the U.S. government's official web portal to all federal, state and local government web resources and services.